Regional Weather Roundup
Issued by NWS

Home | Current Version | Previous Version | Text Only | Print | Product List | Glossary On
Versions: 1 2 3 4 5 6 7 8 9 10 11 12 13 14 15 16 17 18 19 20 21 22 23 24 25 26 27 28 29 30 31 32 33 34 35 36 37 38 39 40 41 42 43 44 45 46 47 48 49 50
000
ASUS43 KLOT 192306
RWRIL

ILLINOIS REGIONAL WEATHER ROUNDUP
NATIONAL WEATHER SERVICE CHICAGO/ROMEOVILLE IL
500 PM CST FRI DEC 19 2014

NOTE: "FAIR" INDICATES FEW OR NO CLOUDS BELOW 12,000 FEET WITH NO
SIGNIFICANT WEATHER AND/OR OBSTRUCTIONS TO VISIBILITY.

* THESE STATIONS ARE NOT UNDER NWS QUALITY CONTROL. THEY ALSO MAY NOT
  REPORT WEATHER SUCH AS PRECIPITATION OR FOG.

ILZ001-002-007-009-015-016-024-200000-
NORTHWEST ILLINOIS

CITY           SKY/WX    TMP DP  RH WIND       PRES   REMARKS
MOLINE         MOCLDY    29  20  69 E7        30.27F WCI  22
STERLING*      CLOUDY    28  21  74 CALM      30.30F
SAVANNA*       CLOUDY    30  22  72 CALM      30.30F
$$

ILZ003-004-008-010-011-017-018-200000-
NORTH CENTRAL ILLINOIS

CITY           SKY/WX    TMP DP  RH WIND       PRES   REMARKS
ROCKFORD       CLOUDY    28  21  75 SW3       30.33S
FREEPORT*      CLOUDY    27  22  81 CALM      30.33S
ROCHELLE*      CLOUDY    28  22  80 CALM      30.31F
DE KALB*       CLOUDY    28  22  76 NW5       30.30F WCI  23
PERU*          MOCLDY    30  24  78 N6        30.30F WCI  24
$$

ILZ005-006-012>014-019>023-200000-
NORTHEAST ILLINOIS

CITY           SKY/WX    TMP DP  RH WIND       PRES   REMARKS
CHICAGO-OHARE  CLOUDY    31  22  69 S5        30.30S WCI  26
CHICAGO-MIDWAY CLOUDY    33  23  66 SW3       30.31S
AURORA         CLOUDY    32  24  72 NW3       30.30F
LANSING*       CLOUDY    31  26  79 CALM      30.32F
JOLIET*        CLOUDY    32  23  70 CALM      30.31F
WAUKEGAN       CLOUDY    28  20  71 CALM      30.31R
DUPAGE AIRPORT CLOUDY    31  23  72 NW5       30.30S WCI  26
KANKAKEE*      CLOUDY    31  27  83 NE5       30.30F WCI  26
WHEELING       CLOUDY    31  21  66 CALM      30.33R
MORRIS*        CLOUDY    32  26  78 CALM      30.29F
ROMEOVILLE*    CLOUDY    32  25  74 S5        30.30F WCI  27
NORTHERLY ISL    N/A     33  22  64 S5          N/A  WCI  29
$$

LMZ740>746-200000-
SOUTHERN LAKE MICHIGAN

STATION/POSITION SKY/WX   TEMP    WIND        PRES    VSBY  WAVE
                          AIR SEA DIR/SP/G                  HT/PER
                          (F)     (DEG/KT/KT) (MB)    (MI)  (FT/S)
WAUKEGAN HARBOR            29     270/  6/ 12   N/A
HARRISON CRIB              32     230/  1/  2   N/A
BURNHAM HARBOR             33     220/  5/  7   N/A
CALUMET HARBOR             33     220/  3/  4 1025.5F
$$

ILZ025>027-034>036-040-047-049-050-058-095>099-200000-
WEST-CENTRAL ILLINOIS

CITY           SKY/WX    TMP DP  RH WIND       PRES   REMARKS
QUINCY         CLOUDY    33  27  78 E3        30.26S
GALESBURG*     CLOUDY    28  21  74 N3        30.27S
MACOMB*        CLOUDY    31  26  82 CALM      30.30S
JACKSONVILLE*  CLOUDY    34  28  79 NE5       30.28S WCI  30
PITTSFIELD*    CLOUDY    34  28  80 CALM      30.28S
$$

ILZ028>032-037-038-041>044-048-051>054-059>061-200000-
CENTRAL ILLINOIS

CITY           SKY/WX    TMP DP  RH WIND       PRES   REMARKS
PONTIAC        CLEAR     29  26  90 CALM      30.30F
BLOOMINGTON    PTCLDY    28  23  81 CALM      30.29S
DECATUR        MOCLDY    30  25  81 NE3       30.29R
PEORIA         MOCLDY    32  20  61 CALM      30.29S
LACON*         CLOUDY    30  22  71 N3        30.29S
LINCOLN*       CLOUDY    32  25  76 CALM      30.30S
SPRINGFIELD    CLOUDY    31  23  72 N5        30.29S WCI  26
TAYLORVILLE    CLOUDY    32  25  74 NE5       30.28S WCI  27
$$

ILZ033-039-045-046-055>057-062-063-200000-
EAST-CENTRAL ILLINOIS

CITY           SKY/WX    TMP DP  RH WIND       PRES   REMARKS
CHAMPAIGN      MOCLDY    30  23  75 CALM      30.29S
DANVILLE*      CLOUDY    30  26  84 E3        30.27F
RANTOUL*       CLOUDY    32  27  80 CALM      30.29S
MATTOON        MOCLDY    31  24  75 NE3       30.28S
PARIS*         CLOUDY    32  27  82 CALM      30.30S
$$

ILZ079-100>102-200000-
SOUTHWEST ILLINOIS

CITY           SKY/WX    TMP DP  RH WIND       PRES   REMARKS
BELLEVILLE     CLOUDY    35  29  80 NE2       30.28R
CAHOKIA*       CLOUDY    37  29  72 SE5       30.28S WCI  33
SPARTA*        CLOUDY    35  29  80 NE3       30.29R
$$

ILZ064>066-069>071-074>076-080>082-084>086-088>090-092>094-200000-
SOUTH-CENTRAL ILLINOIS

CITY           SKY/WX    TMP DP  RH WIND       PRES   REMARKS
CARBONDALE     CLOUDY    36  27  69 E5        30.28R WCI  32
CAIRO*         CLOUDY    40  32  73 NE6       30.26F
EFFINGHAM*     MOCLDY    32  20  61 CALM      30.30S
MARION         PTCLDY    36  28  75 NE5       30.29R WCI  32
MT. VERNON     CLOUDY    36  23  60 CALM      30.28S
CENTRALIA*     CLOUDY    34  26  71 CALM      30.27F
SALEM*         CLOUDY    36  27  70 NE5       30.27F WCI  32
METROPOLIS*    CLOUDY    37  31  78 CALM      30.28R
$$

ILZ067-068-072-073-078-083-087-091-200000-
SOUTHEAST ILLINOIS

CITY           SKY/WX    TMP DP  RH WIND       PRES   REMARKS
LAWRENCEVILLE  MOCLDY    32  25  75 NE5       30.29F WCI  27
FLORA*         MOCLDY    33  23  67 NE3       30.29S
FAIRFIELD*     CLOUDY    33  25  72 CALM      30.27S
HARRISBURG*    CLOUDY    36  27  69 CALM      30.30R
ROBINSON*      MOCLDY    32  24  72 N5        30.31S WCI  27
CARMI*         MOCLDY    35  29  79 N6        30.28R WCI  30
$$

ABBREVIATIONS USED IN REMARKS
   TC - TEMPERATURE IN CELSIUS
  WCI - WIND CHILL INDEX
   HX - HEAT INDEX
  VSB - VISIBILITY
$$



USA.gov is the U.S. government's official web portal to all federal, state and local government web resources and services.